Location: Iesi
(43.5167°N, 13.2333°E)
Time: 02:45:03
(UTC+00:00)

IGS 5A - Pass Details

Date: 08 August 2020
Orbit: 583 x 588 km, 97.6° (Epoch: 26 September)

Event Time Altitude Azimuth Distance (km) Brightness Sun altitude
Exits shadow 19:41:13 22° 127° (SE) 1,309 4.6 -13.5°
Maximum altitude 19:43:25 39° 71° (ENE) 885 4.1 -13.8°
Drops below altitude 10° 19:47:19 10° 3° (N) 1,924 6.6 -14.4°
Sets 19:49:34 0° 355° (N) 2,830 7.7 -14.7°
